Location: Piotrkow Trybunalski
(51.4000°N, 19.6830°E)
Time: 11:40:16
(UTC+02:00)

A-11 Canister half - Pass Details

Date: 01 February 2023
Orbit: 1526 x 1682 km, 47.3° (Epoch: 26 March)

Event Time Altitude Azimuth Distance (km) Brightness Sun altitude
Rises 06:35:46 0° 230° (SW) 4,668 11.2 -7.2°
Reaches altitude 10° 06:38:53 10° 225° (SW) 3,688 10.8 -6.7°
Maximum altitude 06:47:43 51° 154° (SSE) 1,876 9.9 -5.4°
Drops below altitude 10° 06:56:43 10° 82° (E) 3,763 12.2 -4.1°
Sets 06:59:56 0° 78° (ENE) 4,769 12.6 -3.6°
